| time (UTC) | temp F | wind direction | speed MPH | gust MPH | rain 1hr in | rain 24hr in | rain mn in | humidity % | barometer mb |
| 20260506043010 | 48 | 40 | 0.0 | 0.0 | 0.00 | 0.00 | 0.00 | 83 | 1011.9 |
| 20260506041514 | 48 | 100 | 0.0 | 0.0 | 0.00 | 0.00 | 0.00 | 83 | 1012.1 |
| 20260506040010 | 48 | 299 | 0.0 | 0.0 | 0.00 | 0.00 | 0.00 | 83 | 1012.3 |
| 20260506034510 | 48 | 346 | 0.0 | 0.0 | 0.00 | 0.00 | 0.00 | 82 | 1012.4 |
| 20260506033006 | 48 | 62 | 0.0 | 0.0 | 0.00 | 0.00 | 0.00 | 82 | 1012.6 |
| 20260506031505 | 49 | 3 | 0.0 | 0.0 | 0.00 | 0.00 | 0.00 | 81 | 1012.4 |
| 20260506030009 | 49 | 12 | 0.0 | 0.0 | 0.00 | 0.00 | 0.00 | 79 | 1012.2 |
| 20260506024603 | 49 | 320 | 0.0 | 0.0 | 0.00 | 0.00 | 0.00 | 77 | 1012.2 |
| 20260506023101 | 49 | 318 | 0.0 | 0.0 | 0.00 | 0.00 | 0.00 | 75 | 1011.7 |
| 20260506021555 | 49 | 327 | 0.0 | 11.0 | 0.00 | 0.00 | 0.00 | 75 | 1011.2 |
| 20260506020053 | 50 | 23 | 0.0 | 8.0 | 0.00 | 0.00 | 0.00 | 75 | 1011.0 |
| 20260506014552 | 50 | 18 | 0.0 | 0.0 | 0.00 | 0.00 | 0.00 | 74 | 1010.6 |
| 20260506013051 | 50 | 348 | 0.0 | 10.0 | 0.00 | 0.00 | 0.00 | 73 | 1010.3 |
| 20260506011547 | 50 | 78 | 0.0 | 0.0 | 0.00 | 0.00 | 0.00 | 74 | 1010.3 |
| 20260506010047 | 50 | 31 | 0.0 | 0.0 | 0.00 | 0.00 | 0.00 | 71 | 1010.3 |
| 20260506004542 | 50 | 31 | 0.0 | 14.0 | 0.00 | 0.00 | 0.00 | 69 | 1010.0 |
| 20260506003040 | 50 | 320 | 0.0 | 0.0 | 0.00 | 0.00 | 0.00 | 77 | 1009.6 |
| 20260506001541 | 50 | 52 | 0.0 | 0.0 | 0.00 | 0.00 | 0.00 | 77 | 1009.2 |
| 20260506000040 | 50 | 130 | 0.0 | 5.0 | 0.00 | 0.00 | 0.00 | 76 | 1009.6 |
| 20260505234539 | 50 | 48 | 1.0 | 10.0 | 0.00 | 0.00 | 0.00 | 78 | 1009.3 |
| 20260505233036 | 51 | 45 | 0.0 | 1.0 | 0.00 | 0.00 | 0.00 | 77 | 1009.4 |
| 20260505231542 | 51 | 16 | 0.0 | 8.0 | 0.00 | 0.00 | 0.00 | 76 | 1009.2 |
| 20260505230048 | 51 | 332 | 0.0 | 12.0 | 0.00 | 0.00 | 0.00 | 75 | 1008.8 |
| 20260505224530 | 51 | 42 | 3.0 | 13.0 | 0.00 | 0.00 | 0.00 | 74 | 1008.6 |
| 20260505223029 | 52 | 81 | 1.0 | 9.0 | 0.00 | 0.00 | 0.00 | 74 | 1008.4 |
| 20260505221528 | 52 | 130 | 2.0 | 15.0 | 0.00 | 0.00 | 0.00 | 73 | 1008.3 |
| 20260505220031 | 52 | 8 | 1.0 | 15.0 | 0.00 | 0.00 | 0.00 | 74 | 1008.3 |
| 20260505214527 | 51 | 69 | 1.0 | 14.0 | 0.00 | 0.00 | 0.00 | 75 | 1008.2 |
| 20260505213025 | 51 | 54 | 1.0 | 17.0 | 0.00 | 0.00 | 0.00 | 76 | 1008.2 |
| 20260505211525 | 51 | 58 | 4.0 | 16.0 | 0.00 | 0.00 | 0.00 | 76 | 1008.2 |
| 20260505210023 | 51 | 22 | 0.0 | 12.0 | 0.00 | 0.00 | 0.00 | 80 | 1008.0 |
| 20260505204522 | 50 | 43 | 3.0 | 14.0 | 0.00 | 0.00 | 0.00 | 80 | 1008.0 |
| 20260505203022 | 50 | 83 | 5.0 | 16.0 | 0.00 | 0.00 | 0.00 | 80 | 1008.0 |
| 20260505201520 | 50 | 22 | 6.0 | 16.0 | 0.00 | 0.00 | 0.00 | 81 | 1008.0 |
| 20260505200016 | 51 | 62 | 2.0 | 13.0 | 0.00 | 0.00 | 0.00 | 77 | 1008.1 |
| 20260505194512 | 51 | 35 | 4.0 | 18.0 | 0.00 | 0.00 | 0.00 | 75 | 1008.4 |
| 20260505193011 | 51 | 60 | 4.0 | 14.0 | 0.00 | 0.00 | 0.00 | 75 | 1007.9 |
| 20260505191509 | 52 | 54 | 0.0 | 20.0 | 0.00 | 0.00 | 0.00 | 73 | 1007.7 |
| 20260505190010 | 52 | 54 | 6.0 | 22.0 | 0.00 | 0.00 | 0.00 | 73 | 1007.4 |
| 20260505184505 | 52 | 59 | 5.0 | 20.0 | 0.00 | 0.00 | 0.00 | 73 | 1007.0 |
| 20260505183102 | 52 | 357 | 3.0 | 14.0 | 0.00 | 0.00 | 0.00 | 72 | 1007.2 |
| 20260505181503 | 52 | 29 | 4.0 | 19.0 | 0.00 | 0.00 | 0.00 | 72 | 1007.2 |
| 20260505180107 | 52 | 40 | 0.0 | 24.0 | 0.00 | 0.00 | 0.00 | 74 | 1006.7 |
| 20260505180001 | 52 | 47 | 3.0 | 24.0 | 0.00 | 0.00 | 0.00 | 73 | 1006.7 |
| 20260505174611 | 52 | 53 | 7.0 | 19.0 | 0.00 | 0.00 | 0.00 | 74 | 1006.8 |
| 20260505173057 | 52 | 64 | 2.0 | 17.0 | 0.00 | 0.00 | 0.00 | 74 | 1007.1 |
| 20260505171555 | 52 | 14 | 5.0 | 23.0 | 0.00 | 0.00 | 0.00 | 72 | 1006.5 |
| 20260505170052 | 52 | 67 | 4.0 | 22.0 | 0.00 | 0.00 | 0.00 | 72 | 1006.2 |
| 20260505164550 | 52 | 122 | 3.0 | 18.0 | 0.00 | 0.00 | 0.00 | 74 | 1005.8 |
| 20260505163046 | 52 | 48 | 8.0 | 25.0 | 0.00 | 0.00 | 0.00 | 73 | 1005.2 |
| 20260505161551 | 52 | 74 | 6.0 | 24.0 | 0.00 | 0.00 | 0.00 | 76 | 1005.1 |
| 20260505153036 | 52 | 61 | 7.0 | 19.0 | 0.00 | 0.00 | 0.00 | 82 | 1004.2 |
| 20260505151533 | 52 | 23 | 1.0 | 23.0 | 0.00 | 0.00 | 0.00 | 83 | 1004.2 |
| 20260505124601 | 55 | 82 | 7.0 | 19.0 | 0.00 | 0.00 | 0.00 | 83 | 1001.2 |
| 20260505123102 | 56 | 313 | 5.0 | 24.0 | 0.00 | 0.00 | 0.00 | 83 | 1001.2 |
| 20260505121556 | 56 | 93 | 4.0 | 18.0 | 0.00 | 0.00 | 0.00 | 84 | 1000.7 |
| 20260505120054 | 56 | 15 | 3.0 | 24.0 | 0.00 | 0.00 | 0.00 | 84 | 1000.9 |
| 20260505114555 | 57 | 52 | 6.0 | 22.0 | 0.00 | 0.00 | 0.00 | 84 | 1000.4 |
| 20260505113049 | 58 | 65 | 1.0 | 16.0 | 0.00 | 0.00 | 0.00 | 84 | 1000.3 |
| 20260505111541 | 60 | 32 | 4.0 | 17.0 | 0.00 | 0.00 | 0.00 | 84 | 1000.2 |
| 20260505101547 | 67 | 37 | 5.0 | 15.0 | 0.00 | 0.00 | 0.00 | 76 | 999.3 |
| 20260505100050 | 67 | 319 | 0.0 | 9.0 | 0.00 | 0.00 | 0.00 | 76 | 999.1 |
| 20260505094527 | 67 | 157 | 0.0 | 14.0 | 0.00 | 0.00 | 0.00 | 76 | 998.8 |
| 20260505093024 | 68 | 120 | 2.0 | 16.0 | 0.00 | 0.00 | 0.00 | 76 | 998.9 |
| 20260505091520 | 68 | 114 | 0.0 | 0.0 | 0.00 | 0.00 | 0.00 | 78 | 998.7 |
| 20260505090019 | 67 | 73 | 0.0 | 9.0 | 0.00 | 0.00 | 0.00 | 79 | 998.5 |
| 20260505084519 | 67 | 65 | 0.0 | 12.0 | 0.00 | 0.00 | 0.00 | 80 | 998.1 |
| 20260505083021 | 67 | 128 | 0.0 | 0.0 | 0.00 | 0.00 | 0.00 | 81 | 997.7 |
| 20260505081517 | 67 | 107 | 0.0 | 3.0 | 0.00 | 0.00 | 0.00 | 80 | 997.8 |
| 20260505080016 | 67 | 143 | 0.0 | 0.0 | 0.00 | 0.00 | 0.00 | 80 | 997.9 |
| 20260505074516 | 67 | 122 | 1.0 | 10.0 | 0.00 | 0.00 | 0.00 | 80 | 997.5 |
| 20260505073030 | 67 | 144 | 0.0 | 5.0 | 0.00 | 0.00 | 0.00 | 79 | 997.8 |
| 20260505071510 | 67 | 87 | 0.0 | 9.0 | 0.00 | 0.00 | 0.00 | 78 | 997.9 |
| 20260505070013 | 68 | 123 | 0.0 | 12.0 | 0.00 | 0.00 | 0.00 | 77 | 998.2 |
| 20260505064509 | 68 | 278 | 0.0 | 12.0 | 0.00 | 0.00 | 0.00 | 77 | 998.2 |
| 20260505063005 | 69 | 125 | 0.0 | 9.0 | 0.00 | 0.00 | 0.00 | 76 | 998.3 |
| 20260505061505 | 69 | 117 | 0.0 | 13.0 | 0.00 | 0.00 | 0.00 | 75 | 998.3 |
| 20260505060104 | 69 | 126 | 2.0 | 14.0 | 0.00 | 0.00 | 0.00 | 74 | 998.4 |
| 20260505054558 | 69 | 145 | 2.0 | 10.0 | 0.00 | 0.00 | 0.00 | 74 | 998.5 |
| 20260505053053 | 70 | 114 | 0.0 | 11.0 | 0.00 | 0.00 | 0.00 | 73 | 998.5 |
| 20260505051550 | 71 | 132 | 0.0 | 9.0 | 0.00 | 0.00 | 0.00 | 73 | 998.8 |